Radiosonde details



Informationen :

Serial : ME3804333
Type : Meteomodem M20
Frequency : 402.500MHz
Launchsite : -
Nearest town : Breña, PE (0.9km)

Altitude (Max) : 12136m at 2026-09-03 12:35:47
Speed (Max) : 206km/h at altitude 996m

Average speed : 182km/h
Average ascent rate : 1m/s
Average descent rate : -0m/s
Ascent rate (Max) : 3.7m/s
Descent rate (Max): -1.9m/s

First frame :
SQ9EZE-14 at 2026-09-03 12:09:20 at altitude 6952m (OG: 6910m)
Last frame :
SQ9PSP-11 at 2026-09-03 12:57:37 at altitude 997m (OG: 955m)

Flighttime : 48m17s
Ascent time : 26m27s
Descent time : 21m50s
Uptime : -
Killtimer : -

Distance (Straight line distance): 11604km

Distance (Route):


Frames : 75


Measurement :

Temperature : 0°C
Humidity : 0%
Pressure : 0hPa


Vertical profile (SkewT) :


Elevation profile :



Receiving stations :


Receiver Frames First received Last received
SQ9PSP-11 57 2026-09-03 12:35:00 2026-09-03 12:57:37
SQ9EZE-14 9 2026-09-03 12:09:20 2026-09-03 12:45:12
SP9KGR-15 9 2026-09-03 12:54:27 2026-09-03 12:57:26

Share per receiver :



All frames :


Receiver Date Latitude Longitude Direction Speed Altitude Climb Temperature Humidity Pressure Voltage Killtimer Uptime BKT XDATA
SQ9PSP-112026-09-03 12:57:37-12.04800-77.05226288°199km/h997m-0.1m/s0°C0%0hPa0V00:00:0000:00:0000:00:00
SP9KGR-152026-09-03 12:57:26-12.04793-77.04671253°199km/h996m0.1m/s0°C0%0hPa0V00:00:0000:00:0000:00:00
SP9KGR-152026-09-03 12:57:10-12.04249-77.04096201°199km/h988m-1.9m/s0°C0%0hPa0V00:00:0000:00:0000:00:00
SQ9PSP-112026-09-03 12:57:10-12.04249-77.04096201°199km/h988m-1.9m/s0°C0%0hPa0V00:00:0000:00:0000:00:00
SQ9PSP-112026-09-03 12:56:49-12.03273-77.04331134°199km/h996m0.1m/s0°C0%0hPa0V00:00:0000:00:0000:00:00
SQ9PSP-112026-09-03 12:56:32-12.03049-77.0514178°203km/h996m0.8m/s0°C0%0hPa0V00:00:0000:00:0000:00:00
SQ9PSP-112026-09-03 12:56:15-12.03570-77.0579725°199km/h997m0.0m/s0°C0%0hPa0V00:00:0000:00:0000:00:00
SP9KGR-152026-09-03 12:56:15-12.03570-77.0579725°199km/h997m0.0m/s0°C0%0hPa0V00:00:0000:00:0000:00:00
SQ9PSP-112026-09-03 12:55:54-12.04559-77.05623318°199km/h1000m0.3m/s0°C0%0hPa0V00:00:0000:00:0000:00:00
SP9KGR-152026-09-03 12:55:54-12.04559-77.05623318°199km/h1000m0.3m/s0°C0%0hPa0V00:00:0000:00:0000:00:00
SP9KGR-152026-09-03 12:55:35-12.04812-77.04727256°199km/h1002m0.0m/s0°C0%0hPa0V00:00:0000:00:0000:00:00
SQ9PSP-112026-09-03 12:55:35-12.04812-77.04727256°199km/h1002m0.0m/s0°C0%0hPa0V00:00:0000:00:0000:00:00
SP9KGR-152026-09-03 12:55:18-12.04260-77.04099202°199km/h996m0.0m/s0°C0%0hPa0V00:00:0000:00:0000:00:00
SQ9PSP-112026-09-03 12:55:09-12.03812-77.04047173°199km/h1000m0.1m/s0°C0%0hPa0V00:00:0000:00:0000:00:00
SP9KGR-152026-09-03 12:55:02-12.03479-77.04166151°199km/h999m0.1m/s0°C0%0hPa0V00:00:0000:00:0000:00:00
SQ9PSP-112026-09-03 12:54:51-12.03112-77.04579115°195km/h998m-1.7m/s0°C0%0hPa0V00:00:0000:00:0000:00:00
SP9KGR-152026-09-03 12:54:45-12.03036-77.0487696°199km/h998m-0.1m/s0°C0%0hPa0V00:00:0000:00:0000:00:00
SQ9PSP-112026-09-03 12:54:31-12.03242-77.0554651°199km/h999m-0.1m/s0°C0%0hPa0V00:00:0000:00:0000:00:00
SP9KGR-152026-09-03 12:54:27-12.03388-77.0568838°199km/h999m0.0m/s0°C0%0hPa0V00:00:0000:00:0000:00:00
SQ9PSP-112026-09-03 12:54:12-12.04105-77.05860350°199km/h996m0.0m/s0°C0%0hPa0V00:00:0000:00:0000:00:00
SQ9PSP-112026-09-03 12:53:43-12.04814-77.04739255°197km/h995m1.8m/s0°C0%0hPa0V00:00:0000:00:0000:00:00
SQ9PSP-112026-09-03 12:53:27-12.04317-77.04124206°201km/h999m0.1m/s0°C0%0hPa0V00:00:0000:00:0000:00:00
SQ9PSP-112026-09-03 12:53:11-12.03533-77.04135154°199km/h1001m-0.0m/s0°C0%0hPa0V00:00:0000:00:0000:00:00
SQ9PSP-112026-09-03 12:52:53-12.03037-77.0486497°199km/h1001m-0.2m/s0°C0%0hPa0V00:00:0000:00:0000:00:00
SQ9PSP-112026-09-03 12:52:34-12.03421-77.0571036°199km/h1000m-0.1m/s0°C0%0hPa0V00:00:0000:00:0000:00:00
SQ9PSP-112026-09-03 12:52:02-12.04775-77.05301293°199km/h1000m-0.1m/s0°C0%0hPa0V00:00:0000:00:0000:00:00
SQ9PSP-112026-09-03 12:51:47-12.04750-77.04552245°197km/h1002m0.7m/s0°C0%0hPa0V00:00:0000:00:0000:00:00
SQ9PSP-112026-09-03 12:51:31-12.04136-77.04060194°199km/h1003m0.0m/s0°C0%0hPa0V00:00:0000:00:0000:00:00
SQ9PSP-112026-09-03 12:50:40-12.04836-77.05045276°197km/h995m0.4m/s0°C0%0hPa0V00:00:0000:00:0000:00:00
SQ9PSP-112026-09-03 12:50:23-12.04529-77.04263222°199km/h996m-0.2m/s0°C0%0hPa0V00:00:0000:00:0000:00:00
SQ9PSP-112026-09-03 12:50:04-12.03627-77.04095161°199km/h995m0.0m/s0°C0%0hPa0V00:00:0000:00:0000:00:00
SQ9PSP-112026-09-03 12:49:44-12.03038-77.0486597°199km/h995m0.2m/s0°C0%0hPa0V00:00:0000:00:0000:00:00
SQ9PSP-112026-09-03 12:49:29-12.03269-77.0557549°199km/h995m-0.0m/s0°C0%0hPa0V00:00:0000:00:0000:00:00
SQ9PSP-112026-09-03 12:49:10-12.04145-77.05852348°199km/h994m0.1m/s0°C0%0hPa0V00:00:0000:00:0000:00:00
SQ9PSP-112026-09-03 12:48:52-12.04792-77.05254290°199km/h995m0.1m/s0°C0%0hPa0V00:00:0000:00:0000:00:00
SQ9PSP-112026-09-03 12:48:34-12.04641-77.04381232°199km/h995m0.1m/s0°C0%0hPa0V00:00:0000:00:0000:00:00
SQ9PSP-112026-09-03 12:48:18-12.03934-77.04038181°199km/h995m0.1m/s0°C0%0hPa0V00:00:0000:00:0000:00:00
SQ9PSP-112026-09-03 12:47:49-12.03034-77.0500788°199km/h996m-0.0m/s0°C0%0hPa0V00:00:0000:00:0000:00:00
SQ9PSP-112026-09-03 12:47:28-12.03636-77.0582320°199km/h995m0.0m/s0°C0%0hPa0V00:00:0000:00:0000:00:00
SQ9PSP-112026-09-03 12:47:12-12.04414-77.05736329°199km/h995m0.0m/s0°C0%0hPa0V00:00:0000:00:0000:00:00
SQ9PSP-112026-09-03 12:46:56-12.04834-77.05065278°199km/h994m-0.0m/s0°C0%0hPa0V00:00:0000:00:0000:00:00
SQ9PSP-112026-09-03 12:46:41-12.04614-77.04350230°199km/h993m-0.1m/s0°C0%0hPa0V00:00:0000:00:0000:00:00
SQ9PSP-112026-09-03 12:46:25-12.03893-77.04040178°199km/h995m-0.1m/s0°C0%0hPa0V00:00:0000:00:0000:00:00
SQ9PSP-112026-09-03 12:45:51-12.03097-77.0529969°199km/h994m-0.1m/s0°C0%0hPa0V00:00:0000:00:0000:00:00
SQ9PSP-112026-09-03 12:45:35-12.03674-77.0583618°199km/h993m-0.1m/s0°C0%0hPa0V00:00:0000:00:0000:00:00
SQ9PSP-112026-09-03 12:45:20-12.04405-77.05742330°199km/h993m0.0m/s0°C0%0hPa0V00:00:0000:00:0000:00:00
SQ9EZE-142026-09-03 12:45:12-12.04693-77.05459304°199km/h994m0.1m/s0°C0%0hPa0V00:00:0000:00:0000:00:00
SQ9PSP-112026-09-03 12:44:48-12.04586-77.04320227°199km/h994m-0.1m/s0°C0%0hPa0V00:00:0000:00:0000:00:00
SQ9PSP-112026-09-03 12:44:33-12.03901-77.04040179°197km/h994m0.0m/s0°C0%0hPa0V00:00:0000:00:0000:00:00
SQ9PSP-112026-09-03 12:44:18-12.03241-77.04369131°199km/h989m-0.1m/s0°C0%0hPa0V00:00:0000:00:0000:00:00
SQ9PSP-112026-09-03 12:44:02-12.03050-77.0514179°199km/h995m-0.1m/s0°C0%0hPa0V00:00:0000:00:0000:00:00
SQ9PSP-112026-09-03 12:43:46-12.03524-77.0577528°199km/h994m0.1m/s0°C0%0hPa0V00:00:0000:00:0000:00:00
SQ9PSP-112026-09-03 12:43:30-12.04306-77.05795337°199km/h995m-0.0m/s0°C0%0hPa0V00:00:0000:00:0000:00:00
SQ9PSP-112026-09-03 12:43:13-12.04822-77.05137282°199km/h995m0.1m/s0°C0%0hPa0V00:00:0000:00:0000:00:00
SQ9PSP-112026-09-03 12:42:57-12.04627-77.04366231°199km/h993m0.0m/s0°C0%0hPa0V00:00:0000:00:0000:00:00
SQ9PSP-112026-09-03 12:42:41-12.03912-77.04040180°199km/h991m0.0m/s0°C0%0hPa0V00:00:0000:00:0000:00:00
SQ9PSP-112026-09-03 12:42:26-12.03247-77.04362131°199km/h988m0.1m/s0°C0%0hPa0V00:00:0000:00:0000:00:00
SQ9PSP-112026-09-03 12:42:11-12.03039-77.0508283°199km/h990m-0.2m/s0°C0%0hPa0V00:00:0000:00:0000:00:00
SQ9PSP-112026-09-03 12:41:53-12.03559-77.0579426°199km/h991m-0.0m/s0°C0%0hPa0V00:00:0000:00:0000:00:00
SQ9EZE-142026-09-03 12:41:39-12.04249-77.05819341°199km/h992m-0.1m/s0°C0%0hPa0V00:00:0000:00:0000:00:00
SQ9PSP-112026-09-03 12:41:36-12.04386-77.05753331°199km/h992m-0.0m/s0°C0%0hPa0V00:00:0000:00:0000:00:00
SQ9PSP-112026-09-03 12:41:21-12.04818-77.05147283°199km/h990m0.0m/s0°C0%0hPa0V00:00:0000:00:0000:00:00
SQ9PSP-112026-09-03 12:41:05-12.04597-77.04336228°199km/h990m0.0m/s0°C0%0hPa0V00:00:0000:00:0000:00:00
SQ9PSP-112026-09-03 12:40:49-12.03918-77.04044181°199km/h990m0.4m/s0°C0%0hPa0V00:00:0000:00:0000:00:00
SQ9PSP-112026-09-03 12:35:4750.6035521.36762113°69km/h12136m1.0m/s0°C0%0hPa0V00:00:0000:00:0000:00:00
SQ9PSP-112026-09-03 12:35:3150.6050721.36350114°69km/h12082m2.1m/s0°C0%0hPa0V00:00:0000:00:0000:00:00
SQ9PSP-112026-09-03 12:35:1650.6066521.35968127°86km/h12034m1.0m/s0°C0%0hPa0V00:00:0000:00:0000:00:00
SQ9PSP-112026-09-03 12:35:0050.6087121.35584135°82km/h11977m1.8m/s0°C0%0hPa0V00:00:0000:00:0000:00:00
SQ9EZE-142026-09-03 12:23:4950.7311021.16149142°86km/h9745m2.5m/s0°C0%0hPa0V00:00:0000:00:0000:00:00
SQ9EZE-142026-09-03 12:23:3350.7341421.15759140°97km/h9686m3.7m/s0°C0%0hPa0V00:00:0000:00:0000:00:00
SQ9EZE-142026-09-03 12:23:1750.7370921.15377143°95km/h9632m1.8m/s0°C0%0hPa0V00:00:0000:00:0000:00:00
SQ9EZE-142026-09-03 12:21:5850.7496521.13484124°80km/h9364m0.9m/s0°C0%0hPa0V00:00:0000:00:0000:00:00
SQ9EZE-142026-09-03 12:21:3850.7522921.12982127°89km/h9299m1.6m/s0°C0%0hPa0V00:00:0000:00:0000:00:00
SQ9EZE-142026-09-03 12:09:3750.8308620.97364135°75km/h7001m1.6m/s0°C0%0hPa0V00:00:0000:00:0000:00:00
SQ9EZE-142026-09-03 12:09:2050.8326220.97034133°66km/h6952m3.2m/s0°C0%0hPa0V00:00:0000:00:0000:00:00


GPX KML Map

© wettersonde.net (DO2JMG) - 2026  -  -